This is the latest recevied weather packets stored in our database for station/object DW9280. If no packets are shown the sender has not sent any weather packets the latest 10 day(s).
| Time | Temp. | Humidity | Pressure | Rain* | Wind** | Luminosity | Snow |
|---|---|---|---|---|---|---|---|
| 1787835787 | 27.22° C | 65% | 1008.9 hPa | 0 mm | - | 675 W/m² | - |
| 1787835613 | 27.22° C | 65% | 1008.9 hPa | 0 mm | - | 497 W/m² | - |
| 1787835311 | 27.22° C | 64% | 1008.9 hPa | 0 mm | - | 392 W/m² | - |
| 1787834888 | 27.22° C | 65% | 1009 hPa | 0 mm | - | 680 W/m² | - |
| 1787834587 | 26.67° C | 66% | 1009.1 hPa | 0 mm | - | 346 W/m² | - |
| 1787834286 | 26.67° C | 65% | 1009.1 hPa | 0 mm | - | 204 W/m² | - |
| 1787833988 | 27.22° C | 65% | 1009.2 hPa | 0 mm | - | 211 W/m² | - |
| 1787833811 | 27.22° C | 65% | 1009.2 hPa | 0 mm | - | 585 W/m² | - |
| 1787833388 | 27.22° C | 63% | 1009.1 hPa | 0 mm | - | 360 W/m² | - |
| 1787833090 | 27.78° C | 66% | 1009.2 hPa | 0 mm | - | 810 W/m² | - |
| 1787832789 | 26.67° C | 66% | 1009.1 hPa | 0 mm | - | 541 W/m² | - |
| 1787832486 | 26.67° C | 66% | 1009.1 hPa | 0 mm | - | 304 W/m² | - |
| 1787832190 | 26.11° C | 68% | 1009 hPa | 0 mm | - | 810 W/m² | - |
| 1787831890 | 25° C | 70% | 1009.1 hPa | 0 mm | - | 274 W/m² | - |
| 1787831589 | 24.44° C | 71% | 1009.3 hPa | 0 mm | - | 251 W/m² | - |
| 1787831287 | 24.44° C | 70% | 1009.3 hPa | 0 mm | - | 190 W/m² | - |
| 1787830988 | 24.44° C | 70% | 1009.3 hPa | 0 mm | - | 137 W/m² | - |
| 1787830686 | 25° C | 69% | 1009.4 hPa | 0 mm | - | 139 W/m² | - |
| 1787830388 | 25° C | 68% | 1009.4 hPa | 0 mm | - | 146 W/m² | - |
| 1787830087 | 25.56° C | 68% | 1009.4 hPa | 0 mm | - | 197 W/m² | - |
| 1787829910 | 25° C | 69% | 1009.6 hPa | 0 mm | - | 519 W/m² | - |
| 1787829523 | 25° C | 69% | 1009.6 hPa | 0 mm | - | 737 W/m² | - |
| 1787829311 | 24.44° C | 70% | 1009.5 hPa | 0 mm | - | 476 W/m² | - |
| 1787828888 | 24.44° C | 69% | 1009.6 hPa | 0 mm | - | 415 W/m² | - |
| 1787828589 | 24.44° C | 71% | 1009.6 hPa | 0 mm | - | 691 W/m² | - |
* Rain latest hour (hover to see other rain measurements)
** Current wind speed in m/s (hover to see current wind gust speed)